Volver al catálogo

STARLINK-30810

ActivoComunicacionesVLEO
NORAD 58178·PAYLOAD·🇺🇸 United States

Lanzado Oct 30, 2023 desde Cape Canaveral Space Force Station

Loading…

Próximos Pases (próximas 24 horas)

TLE

ActualizadoSource: CelesTrak SupGP

Época: Sep 15, 2026, 02:37 UTC

1 58178C 23167D   26258.10951389  .00024315  00000+0  88080-3 0  2586
2 58178  42.9997 153.2642 0001448 276.9433 279.4746 15.27561993    13

Sigue STARLINK-30810 en tiempo real con AllMySat

Download on the App Store